Location: Lombard
(41.8800°N, 88.0080°W)
Time: 20:18:48
(UTC-05:00)

ZACube-1 - Pass Details

Date: 22 May 2022
Orbit: 581 x 662 km, 97.6° (Epoch: 29 June)

Event Time Altitude Azimuth Distance (km) Brightness Sun altitude
Rises 04:36:14 0° 16° (NNE) 2,815 ? -8.5°
Reaches altitude 10° 04:38:26 10° 21° (NNE) 1,907 ? -8.2°
Maximum altitude 04:42:30 56° 100° (E) 695 ? -7.6°
Drops below altitude 10° 04:46:32 10° 179° (S) 1,898 ? -7.0°
Sets 04:48:43 0° 184° (S) 2,799 ? -6.7°
